CZ-6A DEB, 54914

Orbit data source: Space-Track

CZ-6A DEB, 54914 is space debris in SSO originally from a launch on Fri, 11 Nov 2022 UTC launched from the Taiyaun Space Center, China (TSC). Debris objects in space refer to the collection of defunct objects orbiting the Earth. Examples of debris include non-operational satellites, rocket bodies, and fragments generated from explosions, collisions, or faulty payload assembly.

Loading next visibility...
Identifier
54914, 2022-151RB
Orbit
SSO
Country
Flag of CNCN / PRC
Related business
Manufacturer
SAST
Mission
Spacecraft
Bus & Motor
Unknown
Mass
Unknown
Launch date (UTC)
2022-11-11 (4 years ago)
Launch vehicle
Unknown
Launch site
Taiyaun Space Center, China (TSC)
Object type
Payload
Rocket body
Debris
Shape & HBR
Unknown shape, 0.1 m
Radar Cross Section
Medium (>0.1 m² and <1 m²)

Expand to show TLE details & history
Last TLE update: 3 days ago

TLE from 3 days ago
0 CZ-6A DEB
1 54914U 22151RB  26170.92875179  .00000129  00000-0  93349-4 0  9992
2 54914  98.8066 169.7241 0040492 339.6105  20.3449 14.12087688185100
Epoch: 2026-06-19T22:17Z
TLE epoch observation values (Epoch: 2026-06-19T22:17:24.154Z)
Latitude
0.00001°
Longitude
-72.77723°
Altitude
827.695 km
Speed
7.453 km/s
True Right ascension
11h 18m 53s
True Declination
0° 00' 00"
Sunlit
Object was in daylight at epoch
Visualization orbit readout
Latitude
Unknown
Longitude
Unknown
Altitude
Unknown
Speed
Unknown
Apparent Right ascension
Unknown
Apparent Declination
Unknown
Sunlit
N/A
Visualization observer readout
Local Sidereal Time
21:29:51
Azimuth
Unknown
Elevation
Unknown
Doppler factor
Unknown
Orbital elements
Apogee altitude
878.676 km
Perigee altitude
820.144 km
Semi-major axis
7,227.547 km
Eccentricity
0.00405
Inclination
98.8066°
RAAN
169.7241°
Arg. of periapsis
339.6105°
True anomaly
20.50699°
Mean anomaly
20.3449°
Eccentric anomaly
20.42587°
Mean motion
3.53229 °/min
Orbital period
101.92 mins
BSTAR
0.000093349
Loading maneuver chart data...
Computing Atmospheric mass density...
Loading historical data...
Loading historical data...
Loading historical data...
Loading historical data...
Loading historical data...
Loading historical data...
Loading historical data...

Documentation

Showing up to 5 results
|